Regional Weather Roundup
Issued by NWS

Home | Current Version | Previous Version | Text Only | Print | Product List | Glossary On
Versions: 1 2 3 4 5 6 7 8 9 10 11 12 13 14 15 16 17 18 19 20 21 22 23 24 25 26 27 28 29 30 31 32 33 34 35 36 37 38 39 40 41 42 43 44 45 46 47 48 49 50
000
ASUS42 KTBW 190710
RWRFL
FLORIDA REGIONAL WEATHER ROUNDUP
NATIONAL WEATHER SERVICE TAMPA BAY RUSKIN FL
200 AM EST FRI DEC 19 2014

NOTE: "FAIR" INDICATES FEW OR NO CLOUDS BELOW 12,000 FEET WITH NO
SIGNIFICANT WEATHER AND/OR OBSTRUCTIONS TO VISIBILITY.


FLZ001>010-012>015-112-114-115-190800-
PANHANDLE FLORIDA

CITY           SKY/WX    TMP DP  RH WIND       PRES   REMARKS
PENSACOLA      CLOUDY    55  42  61 N6        30.14F
PENSACOLA NAS  MOCLDY    51  44  77 N6        30.14F
MILTON NAS     CLOUDY    53  42  66 N3        30.14F
CRESTVIEW      CLOUDY    52  40  63 CALM      30.16F
DUKE FIELD     MOCLDY    51  42  70 NE2       30.13F
VALPARAISO     MOCLDY    53  41  63 N7        30.13F
MARY ESTHER    CLOUDY    52  40  64 N6        30.12F
TRI COUNTY       N/A     47  45  93 CALM      30.15
PANAMA CITY    FAIR      50  45  83 NW6       30.13S
TYNDALL AFB    CLOUDY    48  47  98 E1        30.13S
APALACHICOLA   CLOUDY    48  43  82 CALM      30.13S

STATION/POSITION SKY/WX   TEMP    WIND        PRES    WAVE   SWELL
                          AIR SEA DIR/SP/G            HT/PER HT/PER
                          (F)     (DEG/KT/KT) (MB)    (FT/S) (FT/S)
30.1N   87.6W              61 66   20/ 12/ 14 1019.8F   1
29.2N   88.2W              69 75  100/  8/ 10 1019.3F   1/ 8
28.7N   86.0W              67 76   50/  6/  8 1020.2F   1/ 8
PANAMA CITY BEAC           53 62  350/  7/  8 1020.3R
CAPE SAN BLAS    NOT AVBL
TOWER C                    59      10/  6/  7 1019.9F
28.5N   84.5W              65 71  360/ 10/ 12 1019.8F   1/ 7

$$
FLZ011-016>038-118-127-128-134-139-239-190800-
NORTH FLORIDA

CITY           SKY/WX    TMP DP  RH WIND       PRES   REMARKS
MARIANNA       CLOUDY    47  43  86 CALM      30.14S
TALLAHASSEE    MOCLDY    44  39  82 CALM      30.13F
PERRY          FOG       42  42 100 CALM      30.13F VSB 1/2
CROSS CITY       N/A     47  44  90 CALM      30.13F
LAKE CITY      FAIR      45  45 100 CALM      30.12S
GAINESVILLE    MOCLDY    49  45  86 CALM      30.13S
MAYPORT NAS    CLEAR     51  45  79 W3        30.11F
JACKSONVILLE   PTCLDY    44  44 100 W3        30.11F
JAX NAS        PTCLDY    52  44  74 SW3       30.13S
JAX CRAIG      CLEAR     48  42  80 CALM      30.12S
JAX CECIL      CLEAR     39  39 100 CALM      30.13S FOG
FERNANDINA BEA FAIR      50  45  81 CALM      30.10F
ST AUGUSTINE   CLEAR     47  45  93 W3        30.13F

STATION/POSITION SKY/WX   TEMP    WIND        PRES    WAVE   SWELL
                          AIR SEA DIR/SP/G            HT/PER HT/PER
                          (F)     (DEG/KT/KT) (MB)    (FT/S) (FT/S)
SHELL POINT                51     300/  5/  7   N/A
KEATON BEACH               52     350/  2/  3 1020.2F
CEDAR KEY                  54     350/  3/  4 1020.9F
FERNANDINA                 51 57  240/  2/  3 1019.0F
30.7N   81.3W                 61                N/A     1/10
MAYPORT                    52 60  300/  5/  5   N/A
31.4N   80.9W              57 57  280/  8/  8 1019.2F   1/ 9   2/ 9
ST AUGUSTINE               52     310/  7/  8 1020.5F

$$
FLZ040-043>046-052-053-057-058-063-144-190800-
INTERIOR CENTRAL FLORIDA

CITY           SKY/WX    TMP DP  RH WIND       PRES   REMARKS
OCALA          MOCLDY    46  43  87 CALM      30.13S
THE VILLAGES     N/A     50  48  93 CALM      30.03S
LEESBURG       MOCLDY    54  49  83 CALM      30.13F
SANFORD        CLOUDY    53  49  86 NW5       30.12F
ORLANDO EXEC   MOCLDY    56  49  77 CALM      30.12F
ORLANDO INTL   CLOUDY    54  51  90 NW3       30.13S
WINTER HAVEN   MOCLDY    53  48  83 N6        30.13F
LAKELAND       PTCLDY    48  46  93 CALM      30.12F
BARTOW         FAIR      48  48 100 CALM      30.13F
OKEECHOBEE     PTCLDY    45  45 100 CALM      30.12R

$$
FLZ041-047-054-059-064-141-147-190800-
EAST CENTRAL FLORIDA

CITY           SKY/WX    TMP DP  RH WIND       PRES   REMARKS
DAYTONA BEACH  MOCLDY    51  47  86 CALM      30.12S
DELAND         MOSUNNY  N/A N/A N/A NW3       30.13S
JFK SPACE CTR  CLOUDY    53  51  93 NW2       30.11F
CAPE CANAVERAL CLOUDY    55  52  91 NW3       30.10F
PATRICK AFB    CLOUDY    60  56  87 N3        30.11S
MELBOURNE      CLOUDY    54  51  90 CALM      30.11S
VERO BEACH     PTCLDY    50  48  93 NW3       30.11R
FT PIERCE      PTCLDY    47  46  97 W3        30.10S
STUART         PTCLDY    52  50  93 N3        30.10F

STATION/POSITION SKY/WX   TEMP    WIND        PRES    WAVE   SWELL
                          AIR SEA DIR/SP/G            HT/PER HT/PER
                          (F)     (DEG/KT/KT) (MB)    (FT/S) (FT/S)
28.5N   80.2W              67 76  320/  8/ 12 1019.6F
28.9N   78.5W              69 76  310/  8/ 10 1019.0R   2/ 9   2/ 9
TRIDENT PIER               56 65  320/  2/  2 1018.9F
28.4N   80.5W                 66                N/A     1/12
27.6N   80.2W                 76                N/A     1/11

$$
FLZ050-056-061-142-242-148-248-149-249-151-251-155-255-
160-260-190800-
WEST CENTRAL FLORIDA

CITY           SKY/WX    TMP DP  RH WIND       PRES   REMARKS
CRYSTAL RIVER  FAIR      50  46  87 CALM      30.14R
INVERNESS      FAIR      48  46  93 CALM      30.14R
BROOKSVILLE    MOCLDY    45  43  93 CALM      30.13F
ZEPHYRHILLS    FAIR      43  41  93 CALM      30.13F
CLEARWATER     PTCLDY    57  53  86 N6        30.12F
TAMPA INTL     CLOUDY    54  48  80 NE5       30.13F
TAMPA EXEC     PTCLDY    46  45  93 CALM      30.13F FOG
PLANT CITY     PTCLDY    50 N/A N/A CALM      30.14S
MACDILL AFB    PTCLDY    47  46  97 N3        30.12F
PETER O KNIGHT PTCLDY    54  50  87 NE3       30.13F
ST PETERSBURG  PTCLDY    57  53  86 N5        30.11F
SARASOTA       PTCLDY    50  49  96 NE5       30.10F
VENICE         FAIR      50  50 100 NE7       30.13R FOG

STATION/POSITION SKY/WX   TEMP    WIND        PRES    WAVE   SWELL
                          AIR SEA DIR/SP/G            HT/PER HT/PER
                          (F)     (DEG/KT/KT) (MB)    (FT/S) (FT/S)
CEDAR KEY                  54     350/  3/  4 1020.9F
28.5N   84.5W              65 71  360/ 10/ 12 1019.8F   1/ 7
27.3N   84.3W                 76                N/A     1/ 8
CLEARWATER BEACH           57 64   50/  5/  7 1019.8R
MIDDLE TAMPA BAY           59      40/ 10/ 11 1019.9F
VENICE                     54 64   40/  5/  6 1019.7F

$$
FLZ066-069-070-075>078-162-262-165-265-190800-
SOUTHWEST FLORIDA AND KEYS

CITY           SKY/WX    TMP DP  RH WIND       PRES   REMARKS
PUNTA GORDA    CLEAR     49  48  97 NE5       30.13F FOG
FT MYERS       CLEAR     54  52  93 CALM      30.11S
SOUTHWEST INTL CLEAR     54  52  93 N3        30.11S
NAPLES         CLEAR     56  54  93 N3        30.10S
MARCO ISLAND   SUNNY     57  54  88 N6        30.09S
MARATHON       CLEAR     67  61  81 N6        30.07F
KEY WEST NAS   CLEAR     67  62  84 N8        30.08F
KEY WEST INTL  CLEAR     66  63  90 N8        30.08F

STATION/POSITION SKY/WX   TEMP    WIND        PRES    WAVE   SWELL
                          AIR SEA DIR/SP/G            HT/PER HT/PER
                          (F)     (DEG/KT/KT) (MB)    (FT/S) (FT/S)
VENICE                     54 64   40/  5/  6 1019.7F
NAPLES                     58 72   10/  5/  7 1019.6R
26.0N   85.6W              72 76   90/  6/  8 1019.1F   1/ 7   2/ 7
DRY TORTUGAS               69      80/ 10/ 11 1018.9F
NW FL BAY                  66      40/  6/  7 1019.2F
SAND KEY                   68      30/ 12/ 13 1018.6F
SOMBRERO KEY               69      20/ 11/ 12 1018.8F
LONG KEY                   68 69   10/  9/ 10 1019.3F
MOLASSES REEF              69 76  360/  8/  8 1018.1F

$$
FLZ067-068-071>074-168-172>174-190800-
SOUTHEAST FLORIDA

CITY           SKY/WX    TMP DP  RH WIND       PRES   REMARKS
W PALM BEACH   PTCLDY    56  53  90 NW3       30.07F
FT LAUDER-EXEC CLEAR     58  54  86 CALM      30.08F
FT LAUDERDALE  PTCLDY    61  54  77 CALM      30.07F
POMPANO BEACH  CLEAR     60  51  72 CALM      30.08F
PEMBROKE PINES CLEAR     59  55  87 CALM      30.09F
OPA LOCKA      CLEAR     60  55  83 CALM      30.09S
MIAMI          CLEAR     63  56  78 CALM      30.09S
WEST KENDALL   CLEAR     55  55 100 NW3       30.09S FOG
HOMESTEAD      CLEAR     60  58  94 N2        30.08S

STATION/POSITION SKY/WX   TEMP    WIND        PRES    WAVE   SWELL
                          AIR SEA DIR/SP/G            HT/PER HT/PER
                          (F)     (DEG/KT/KT) (MB)    (FT/S) (FT/S)
PORT EVERGLADES            65     320/  4/  5 1018.3
VIRGINIA KEY               67 71  350/  5/  7 1019.1R
LAKE WORTH                 63 76  310/  6/  7 1018.3F
SETTLEMENT POINT           70      70/  5/  5 1019.2F

$$



USA.gov is the U.S. government's official web portal to all federal, state and local government web resources and services.